Location: Ammerl�gen
(47.2167°N, 9.6000°E)
Time: 06:32:15
(UTC+00:00)

Envisat - Pass Details

Date: 05 October 2021
Orbit: 764 x 766 km, 98.2° (Epoch: 24 October)

Event Time Altitude Azimuth Distance (km) Brightness Sun altitude
Rises 04:23:53 0° 16° (NNE) 3,243 6.5 -11.4°
Reaches altitude 10° 04:26:13 10° 19° (NNE) 2,312 5.8 -11.0°
Maximum altitude 04:31:17 66° 102° (ESE) 835 3.5 -10.1°
Drops below altitude 10° 04:36:19 10° 184° (S) 2,294 5.4 -9.3°
Sets 04:38:38 0° 187° (S) 3,216 6.1 -8.9°
